Regional Weather Roundup
Issued by NWS Columbia, SC

Home | Current Version | Previous Version | Text Only | Print | Product List | Glossary On
Versions: 1 2 3 4 5 6 7 8 9 10 11 12 13 14 15 16 17 18 19 20 21 22 23 24 25 26 27 28 29 30 31 32 33 34 35 36 37 38 39 40 41 42 43 44 45 46 47 48 49 50
000
ASUS42 KCAE 060810
RWRCAE
REGIONAL WEATHER ROUNDUP
NATIONAL WEATHER SERVICE COLUMBIA SC
300 AM EST FRI MAR 06 2015

NOTE: "FAIR" INDICATES FEW OR NO CLOUDS BELOW 12,000 FEET WITH NO
SIGNIFICANT WEATHER AND/OR OBSTRUCTIONS TO VISIBILITY.

NOT ALL STATIONS ARE QUALITY CONTROLLED BY THE NATIONAL
WEATHER SERVICE. USE DATA WITH CAUTION...ESPECIALLY
DEWPOINT OBSERVATIONS.

SCZ001>056-GAZ040-063>065-077-060900-
...UPSTATE SOUTH CAROLINA...

CITY           SKY/WX    TMP DP  RH WIND       PRES   REMARKS
ANDERSON       CLOUDY    37  25  61 NE9       30.33R WCI  30
LIBERTY        CLOUDY    35  26  69 MISG      30.32R
SPARTANBURG    CLOUDY    34  30  86 NE8       30.34S WCI  27
CLEMSON        CLOUDY    38  22  52 NE9       30.33R WCI  31
GREENVILLE     CLOUDY    34  22  61 NE15      30.33R WCI  24
GREENWOOD      CLOUDY    38  30  73 NE13      30.34R WCI  30
GREER          CLOUDY    33  23  66 N10       30.32S WCI  25
ROCK HILL      CLOUDY    34  24  67 NE12      30.35R WCI  25
CHESTER        CLOUDY    37  28  70 NE7       30.35R WCI  32
LAURENS        CLOUDY    36  34  93 NE7       30.33S WCI  30


...CENTRAL SOUTH CAROLINA...

CITY           SKY/WX    TMP DP  RH WIND       PRES   REMARKS
COLUMBIA APT   CLOUDY    40  31  70 NE14      30.32S WCI  32
COLUMBIA OWENS CLOUDY    39  30  70 NE8       30.34S WCI  33
DARLINGTON     CLOUDY    37  27  65 N14G20    30.36R WCI  29
FLORENCE       CLOUDY    37  29  72 NE14      30.33R WCI  28
MCENTIRE ANGB  CLOUDY    38  31  74 NE7       30.33R WCI  33
ORANGEBURG     CLOUDY    39  30  70 NE13G23   30.31R WCI  31
SUMTER SHAW    CLOUDY    37  30  77 NE18G26   30.31R WCI  27
NEWBERRY       CLOUDY    36  32  87 NE10      30.36S WCI  28
AIKEN          CLOUDY    37  32  81 NE14      30.33S WCI  29
BARNWELL       CLOUDY    41  36  81 NE15      30.31S
MANNING        CLOUDY    41  23  48 N6        30.31S
CAMDEN         CLOUDY    37  30  75 NE9       30.35R WCI  31
LANCASTER      LGT RAIN  36  25  64 NE7       30.35R WCI  30
WINNSBORO      CLOUDY    36  34  93 N7        30.32R WCI  30


...EASTERN AND COASTAL SOUTH CAROLINA...

CITY           SKY/WX    TMP DP  RH WIND       PRES   REMARKS
MYRTLE BEACH   CLOUDY    39  34  81 N13       30.31R WCI  32
N MYRTLE BCH   CLOUDY    37  31  78 NE15G24   30.29R WCI  28
CONWAY         CLOUDY    36  36 100 N8        30.31R WCI  29
MARION         CLOUDY    36  32  87 N12G18    30.33R WCI  27
HARTSVILLE     CLOUDY    34  32  93 NE6       30.34F WCI  29
FLORENCE       CLOUDY    37  29  72 NE14      30.33R WCI  28
DARLINGTON     CLOUDY    37  27  65 N14G20    30.36R WCI  29
CHARLESTON APT CLOUDY    39  37  93 NE12G21   30.29R WCI  32
MOUNT PLEASANT CLOUDY    39  37  93 NE7       30.27S FOG     WCI  34
WALTERBORO     CLOUDY    41  37  87 NE7       30.30R
BEAUFORT       CLOUDY    42  39  89 NE15G22   30.27R


...EASTERN GEORGIA...

CITY           SKY/WX    TMP DP  RH WIND       PRES   REMARKS
AUGUSTA BUSH F CLOUDY    42  34  73 NE10      30.31R
AUGUSTA DANIEL CLOUDY    43  33  68 NE12      30.30S
THOMSON        CLOUDY    44  40  86 E8        30.34S
WASHINGTON     FAIR      41  41 100 E6        30.31R
CLAXTON        CLOUDY    46  45  93 NE10G16   30.26R
SYLVANIA       CLOUDY    42  40  94 NE10G20   30.29R
STATESBORO     CLOUDY    43  43 100 NE8G17    30.27R FOG
SAVANNAH       LGT RAIN  45  42  89 NE15G21   30.25R FOG


...SOUTHERN NORTH CAROLINA...

CITY           SKY/WX    TMP DP  RH WIND       PRES   REMARKS
CHARLOTTE      CLEAR     30  20  66 N12       30.35S WCI  20
MONROE         CLOUDY    34  21  59 N12       30.33S WCI  25
WADESBORO      CLOUDY    35  27  73 N12G17    30.35S WCI  27
ROCKINGHAM       N/A     34  28  79 NE8G16    30.34F WCI  27
RUTHERFORDTON  PTCLDY    28  19  69 NE5       30.35S WCI  23
ASHEVILLE      CLEAR     23  16  74 N10G18    30.31R WCI  12

$$



USA.gov is the U.S. government's official web portal to all federal, state and local government web resources and services.